Year,Month,Day,Hour,Minute,Value (Times are PST for temperature in C)
2008,08,07,00,00,19.60
2008,08,07,00,01,19.60
2008,08,07,00,02,19.60
2008,08,07,00,03,19.60
2008,08,07,00,04,19.60
2008,08,07,00,05,19.60
2008,08,07,00,06,19.50
2008,08,07,00,07,19.50
2008,08,07,00,08,19.50
2008,08,07,00,09,19.50
2008,08,07,00,10,19.50
2008,08,07,00,11,19.50
2008,08,07,00,12,19.50
2008,08,07,00,13,19.50
2008,08,07,00,14,19.50
2008,08,07,00,15,19.50
2008,08,07,00,16,19.50
2008,08,07,00,17,19.40
2008,08,07,00,18,19.40
2008,08,07,00,19,19.40
2008,08,07,00,20,19.40
2008,08,07,00,21,19.40
2008,08,07,00,22,19.30
2008,08,07,00,23,19.30
2008,08,07,00,24,19.30
2008,08,07,00,25,19.20
2008,08,07,00,26,19.20
2008,08,07,00,27,19.20
2008,08,07,00,28,19.10
2008,08,07,00,29,19.10
2008,08,07,00,30,19.00
2008,08,07,00,31,19.00
2008,08,07,00,32,18.90
2008,08,07,00,33,18.90
2008,08,07,00,34,18.90
2008,08,07,00,35,18.90
2008,08,07,00,36,18.80
2008,08,07,00,37,18.80
2008,08,07,00,38,18.80
2008,08,07,00,39,18.80
2008,08,07,00,40,18.80
2008,08,07,00,41,18.80
2008,08,07,00,42,18.80
2008,08,07,00,43,18.80
2008,08,07,00,44,18.80
2008,08,07,00,45,18.80
2008,08,07,00,46,18.80
2008,08,07,00,47,18.80
2008,08,07,00,48,18.70
2008,08,07,00,49,18.70
2008,08,07,00,50,18.70
2008,08,07,00,51,18.70
2008,08,07,00,52,18.70
2008,08,07,00,53,18.60
2008,08,07,00,54,18.60
2008,08,07,00,55,18.60
2008,08,07,00,56,18.60
2008,08,07,00,57,18.60
2008,08,07,00,58,18.60
2008,08,07,00,59,18.50
2008,08,07,01,00,18.50
2008,08,07,01,01,18.50
2008,08,07,01,02,18.50
2008,08,07,01,03,18.40
2008,08,07,01,04,18.40
2008,08,07,01,05,18.40
2008,08,07,01,06,18.40
2008,08,07,01,07,18.40
2008,08,07,01,08,18.40
2008,08,07,01,09,18.40
2008,08,07,01,10,18.40
2008,08,07,01,11,18.40
2008,08,07,01,12,18.40
2008,08,07,01,13,18.40
2008,08,07,01,14,18.40
2008,08,07,01,15,18.40
2008,08,07,01,16,18.40
2008,08,07,01,17,18.40
2008,08,07,01,18,18.40
2008,08,07,01,19,18.40
2008,08,07,01,20,18.40
2008,08,07,01,21,18.40
2008,08,07,01,22,18.30
2008,08,07,01,23,18.30
2008,08,07,01,24,18.20
2008,08,07,01,25,18.20
2008,08,07,01,26,18.10
2008,08,07,01,27,18.00
2008,08,07,01,28,18.00
2008,08,07,01,29,17.90
2008,08,07,01,30,17.90
2008,08,07,01,31,17.90
2008,08,07,01,32,17.80
2008,08,07,01,33,17.80
2008,08,07,01,34,17.80
2008,08,07,01,35,17.80
2008,08,07,01,36,17.70
2008,08,07,01,37,17.70
2008,08,07,01,38,17.70
2008,08,07,01,39,17.70
2008,08,07,01,40,17.70
2008,08,07,01,41,17.60
2008,08,07,01,42,17.60
2008,08,07,01,43,17.60
2008,08,07,01,44,17.60
2008,08,07,01,45,17.60
2008,08,07,01,46,17.60
2008,08,07,01,47,17.60
2008,08,07,01,48,17.60
2008,08,07,01,49,17.60
2008,08,07,01,50,17.60
2008,08,07,01,51,17.50
2008,08,07,01,52,17.50
2008,08,07,01,53,17.50
2008,08,07,01,54,17.50
2008,08,07,01,55,17.60
2008,08,07,01,56,17.60
2008,08,07,01,57,17.60
2008,08,07,01,58,17.50
2008,08,07,01,59,17.50
2008,08,07,02,00,17.50
2008,08,07,02,01,17.50
2008,08,07,02,02,17.40
2008,08,07,02,03,17.40
2008,08,07,02,04,17.50
2008,08,07,02,05,17.50
2008,08,07,02,06,17.50
2008,08,07,02,07,17.50
2008,08,07,02,08,17.50
2008,08,07,02,09,17.50
2008,08,07,02,10,17.50
2008,08,07,02,11,17.50
2008,08,07,02,12,17.50
2008,08,07,02,13,17.50
2008,08,07,02,14,17.50
2008,08,07,02,15,17.40
2008,08,07,02,16,17.40
2008,08,07,02,17,17.40
2008,08,07,02,18,17.50
2008,08,07,02,19,17.50
2008,08,07,02,20,17.50
2008,08,07,02,21,17.60
2008,08,07,02,22,17.60
2008,08,07,02,23,17.60
2008,08,07,02,24,17.70
2008,08,07,02,25,17.70
2008,08,07,02,26,17.70
2008,08,07,02,27,17.70
2008,08,07,02,28,17.70
2008,08,07,02,29,17.80
2008,08,07,02,30,17.80
2008,08,07,02,31,17.80
2008,08,07,02,32,17.80
2008,08,07,02,33,17.90
2008,08,07,02,34,17.90
2008,08,07,02,35,17.90
2008,08,07,02,36,17.90
2008,08,07,02,37,17.90
2008,08,07,02,38,17.90
2008,08,07,02,39,17.90
2008,08,07,02,40,17.90
2008,08,07,02,41,17.90
2008,08,07,02,42,17.90
2008,08,07,02,43,17.80
2008,08,07,02,44,17.80
2008,08,07,02,45,17.80
2008,08,07,02,46,17.70
2008,08,07,02,47,17.70
2008,08,07,02,48,17.70
2008,08,07,02,49,17.70
2008,08,07,02,50,17.70
2008,08,07,02,51,17.70
2008,08,07,02,52,17.80
2008,08,07,02,53,17.80
2008,08,07,02,54,17.80
2008,08,07,02,55,17.90
2008,08,07,02,56,18.00
2008,08,07,02,57,18.10
2008,08,07,02,58,18.10
2008,08,07,02,59,18.20
2008,08,07,03,00,18.20
2008,08,07,03,01,18.20
2008,08,07,03,02,18.20
2008,08,07,03,03,18.20
2008,08,07,03,04,18.20
2008,08,07,03,05,18.10
2008,08,07,03,06,18.10
2008,08,07,03,07,18.00
2008,08,07,03,08,18.00
2008,08,07,03,09,17.90
2008,08,07,03,10,17.90
2008,08,07,03,11,17.80
2008,08,07,03,12,17.70
2008,08,07,03,13,17.60
2008,08,07,03,14,17.60
2008,08,07,03,15,17.50
2008,08,07,03,16,17.40
2008,08,07,03,17,17.40
2008,08,07,03,18,17.30
2008,08,07,03,19,17.30
2008,08,07,03,20,17.30
2008,08,07,03,21,17.20
2008,08,07,03,22,17.20
2008,08,07,03,23,17.20
2008,08,07,03,24,17.20
2008,08,07,03,25,17.20
2008,08,07,03,26,17.20
2008,08,07,03,27,17.20
2008,08,07,03,28,17.30
2008,08,07,03,29,17.30
2008,08,07,03,30,17.30
2008,08,07,03,31,17.30
2008,08,07,03,32,17.30
2008,08,07,03,33,17.30
2008,08,07,03,34,17.30
2008,08,07,03,35,17.30
2008,08,07,03,36,17.30
2008,08,07,03,37,17.30
2008,08,07,03,38,17.30
2008,08,07,03,39,17.40
2008,08,07,03,40,17.40
2008,08,07,03,41,17.40
2008,08,07,03,42,17.40
2008,08,07,03,43,17.40
2008,08,07,03,44,17.40
2008,08,07,03,45,17.30
2008,08,07,03,46,17.30
2008,08,07,03,47,17.30
2008,08,07,03,48,17.20
2008,08,07,03,49,17.20
2008,08,07,03,50,17.20
2008,08,07,03,51,17.20
2008,08,07,03,52,17.20
2008,08,07,03,53,17.20
2008,08,07,03,54,17.10
2008,08,07,03,55,17.10
2008,08,07,03,56,17.10
2008,08,07,03,57,17.10
2008,08,07,03,58,17.10
2008,08,07,03,59,17.10
2008,08,07,04,00,17.00
2008,08,07,04,01,17.00
2008,08,07,04,02,17.00
2008,08,07,04,03,17.00
2008,08,07,04,04,17.00
2008,08,07,04,05,17.00
2008,08,07,04,06,17.00
2008,08,07,04,07,17.00
2008,08,07,04,08,16.90
2008,08,07,04,09,16.90
2008,08,07,04,10,16.90
2008,08,07,04,11,16.90
2008,08,07,04,12,16.90
2008,08,07,04,13,16.90
2008,08,07,04,14,16.80
2008,08,07,04,15,16.80
2008,08,07,04,16,16.80
2008,08,07,04,17,16.80
2008,08,07,04,18,16.80
2008,08,07,04,19,16.80
2008,08,07,04,20,16.80
2008,08,07,04,21,16.80
2008,08,07,04,22,16.70
2008,08,07,04,23,16.70
2008,08,07,04,24,16.70
2008,08,07,04,25,16.70
2008,08,07,04,26,16.60
2008,08,07,04,27,16.60
2008,08,07,04,28,16.60
2008,08,07,04,29,16.60
2008,08,07,04,30,16.50
2008,08,07,04,31,16.50
2008,08,07,04,32,16.40
2008,08,07,04,33,16.40
2008,08,07,04,34,16.30
2008,08,07,04,35,16.30
2008,08,07,04,36,16.30
2008,08,07,04,37,16.20
2008,08,07,04,38,16.20
2008,08,07,04,39,16.20
2008,08,07,04,40,16.20
2008,08,07,04,41,16.20
2008,08,07,04,42,16.20
2008,08,07,04,43,16.20
2008,08,07,04,44,16.20
2008,08,07,04,45,16.20
2008,08,07,04,46,16.20
2008,08,07,04,47,16.20
2008,08,07,04,48,16.20
2008,08,07,04,49,16.20
2008,08,07,04,50,16.20
2008,08,07,04,51,16.20
2008,08,07,04,52,16.20
2008,08,07,04,53,16.10
2008,08,07,04,54,16.10
2008,08,07,04,55,16.10
2008,08,07,04,56,16.10
2008,08,07,04,57,16.10
2008,08,07,04,58,16.00
2008,08,07,04,59,16.00
2008,08,07,05,00,16.00
2008,08,07,05,01,16.00
2008,08,07,05,02,15.90
2008,08,07,05,03,15.90
2008,08,07,05,04,15.90
2008,08,07,05,05,15.80
2008,08,07,05,06,15.80
2008,08,07,05,07,15.80
2008,08,07,05,08,15.80
2008,08,07,05,09,15.80
2008,08,07,05,10,15.80
2008,08,07,05,11,15.80
2008,08,07,05,12,15.70
2008,08,07,05,13,15.70
2008,08,07,05,14,15.70
2008,08,07,05,15,15.70
2008,08,07,05,16,15.70
2008,08,07,05,17,15.60
2008,08,07,05,18,15.60
2008,08,07,05,19,15.60
2008,08,07,05,20,15.60
2008,08,07,05,21,15.50
2008,08,07,05,22,15.50
2008,08,07,05,23,15.40
2008,08,07,05,24,15.40
2008,08,07,05,25,15.40
2008,08,07,05,26,15.40
2008,08,07,05,27,15.30
2008,08,07,05,28,15.30
2008,08,07,05,29,15.30
2008,08,07,05,30,15.30
2008,08,07,05,31,15.20
2008,08,07,05,32,15.20
2008,08,07,05,33,15.20
2008,08,07,05,34,15.20
2008,08,07,05,35,15.20
2008,08,07,05,36,15.10
2008,08,07,05,37,15.10
2008,08,07,05,38,15.10
2008,08,07,05,39,15.10
2008,08,07,05,40,15.10
2008,08,07,05,41,15.20
2008,08,07,05,42,15.20
2008,08,07,05,43,15.20
2008,08,07,05,44,15.20
2008,08,07,05,45,15.20
2008,08,07,05,46,15.20
2008,08,07,05,47,15.20
2008,08,07,05,48,15.20
2008,08,07,05,49,15.20
2008,08,07,05,50,15.20
2008,08,07,05,51,15.20
2008,08,07,05,52,15.20
2008,08,07,05,53,15.10
2008,08,07,05,54,15.10
2008,08,07,05,55,15.00
2008,08,07,05,56,15.00
2008,08,07,05,57,15.00
2008,08,07,05,58,15.00
2008,08,07,05,59,15.00
2008,08,07,06,00,15.00
2008,08,07,06,01,15.00
2008,08,07,06,02,15.00
2008,08,07,06,03,15.00
2008,08,07,06,04,15.00
2008,08,07,06,05,15.00
2008,08,07,06,06,15.00
2008,08,07,06,07,15.00
2008,08,07,06,08,15.00
2008,08,07,06,09,15.00
2008,08,07,06,10,15.00
2008,08,07,06,11,15.00
2008,08,07,06,12,15.00
2008,08,07,06,13,15.00
2008,08,07,06,14,15.00
2008,08,07,06,15,15.00
2008,08,07,06,16,15.00
2008,08,07,06,17,15.00
2008,08,07,06,18,15.00
2008,08,07,06,19,14.90
2008,08,07,06,20,14.90
2008,08,07,06,21,15.00
2008,08,07,06,22,15.00
2008,08,07,06,23,15.00
2008,08,07,06,24,15.00
2008,08,07,06,25,15.00
2008,08,07,06,26,15.00
2008,08,07,06,27,15.00
2008,08,07,06,28,15.00
2008,08,07,06,29,15.00
2008,08,07,06,30,15.00
2008,08,07,06,31,15.00
2008,08,07,06,32,15.00
2008,08,07,06,33,15.00
2008,08,07,06,34,15.00
2008,08,07,06,35,15.00
2008,08,07,06,36,15.00
2008,08,07,06,37,15.00
2008,08,07,06,38,15.00
2008,08,07,06,39,15.00
2008,08,07,06,40,15.10
2008,08,07,06,41,15.20
2008,08,07,06,42,15.20
2008,08,07,06,43,15.20
2008,08,07,06,44,15.20
2008,08,07,06,45,15.20
2008,08,07,06,46,15.20
2008,08,07,06,47,15.20
2008,08,07,06,48,15.20
2008,08,07,06,49,15.20
2008,08,07,06,50,15.20
2008,08,07,06,51,15.20
2008,08,07,06,52,15.20
2008,08,07,06,53,15.20
2008,08,07,06,54,15.20
2008,08,07,06,55,15.30
2008,08,07,06,56,15.30
2008,08,07,06,57,15.30
2008,08,07,06,58,15.40
2008,08,07,06,59,15.40
2008,08,07,07,00,15.40
2008,08,07,07,01,15.50
2008,08,07,07,02,15.50
2008,08,07,07,03,15.60
2008,08,07,07,04,15.60
2008,08,07,07,05,15.60
2008,08,07,07,06,15.60
2008,08,07,07,07,15.60
2008,08,07,07,08,15.60
2008,08,07,07,09,15.70
2008,08,07,07,10,15.70
2008,08,07,07,11,15.70
2008,08,07,07,12,15.80
2008,08,07,07,13,15.80
2008,08,07,07,14,15.90
2008,08,07,07,15,15.90
2008,08,07,07,16,16.00
2008,08,07,07,17,16.00
2008,08,07,07,18,16.10
2008,08,07,07,19,16.10
2008,08,07,07,20,16.20
2008,08,07,07,21,16.20
2008,08,07,07,22,16.30
2008,08,07,07,23,16.40
2008,08,07,07,24,16.50
2008,08,07,07,25,16.50
2008,08,07,07,26,16.60
2008,08,07,07,27,16.70
2008,08,07,07,28,16.80
2008,08,07,07,29,16.90
2008,08,07,07,30,17.00
2008,08,07,07,31,17.10
2008,08,07,07,32,17.20
2008,08,07,07,33,17.30
2008,08,07,07,34,17.40
2008,08,07,07,35,17.40
2008,08,07,07,36,17.50
2008,08,07,07,37,17.70
2008,08,07,07,38,17.70
2008,08,07,07,39,17.80
2008,08,07,07,40,17.90
2008,08,07,07,41,18.00
2008,08,07,07,42,18.10
2008,08,07,07,43,18.20
2008,08,07,07,44,18.40
2008,08,07,07,45,18.50
2008,08,07,07,46,18.70
2008,08,07,07,47,18.80
2008,08,07,07,48,18.90
2008,08,07,07,49,19.00
2008,08,07,07,50,19.10
2008,08,07,07,51,19.20
2008,08,07,07,52,19.30
2008,08,07,07,53,19.30
2008,08,07,07,54,19.30
2008,08,07,07,55,19.20
2008,08,07,07,56,19.00
2008,08,07,07,57,18.90
2008,08,07,07,58,18.80
2008,08,07,07,59,18.60
2008,08,07,08,00,18.60
2008,08,07,08,01,18.50
2008,08,07,08,02,18.40
2008,08,07,08,03,18.40
2008,08,07,08,04,18.30
2008,08,07,08,05,18.30
2008,08,07,08,06,18.30
2008,08,07,08,07,18.30
2008,08,07,08,08,18.30
2008,08,07,08,09,18.40
2008,08,07,08,10,18.40
2008,08,07,08,11,18.30
2008,08,07,08,12,18.30
2008,08,07,08,13,18.30
2008,08,07,08,14,18.30
2008,08,07,08,15,18.20
2008,08,07,08,16,18.20
2008,08,07,08,17,18.20
2008,08,07,08,18,18.30
2008,08,07,08,19,18.30
2008,08,07,08,20,18.40
2008,08,07,08,21,18.40
2008,08,07,08,22,18.50
2008,08,07,08,23,18.60
2008,08,07,08,24,18.60
2008,08,07,08,25,18.70
2008,08,07,08,26,18.80
2008,08,07,08,27,18.80
2008,08,07,08,28,18.90
2008,08,07,08,29,18.90
2008,08,07,08,30,19.00
2008,08,07,08,31,19.00
2008,08,07,08,32,19.00
2008,08,07,08,33,18.90
2008,08,07,08,34,18.90
2008,08,07,08,35,18.90
2008,08,07,08,36,18.80
2008,08,07,08,37,18.80
2008,08,07,08,38,18.80
2008,08,07,08,39,18.70
2008,08,07,08,40,18.50
2008,08,07,08,41,18.30
2008,08,07,08,42,18.20
2008,08,07,08,43,18.10
2008,08,07,08,44,18.10
2008,08,07,08,45,18.10
2008,08,07,08,46,18.10
2008,08,07,08,47,18.10
2008,08,07,08,48,18.10
2008,08,07,08,49,18.10
2008,08,07,08,50,18.10
2008,08,07,08,51,18.10
2008,08,07,08,52,18.10
2008,08,07,08,53,18.20
2008,08,07,08,54,18.20
2008,08,07,08,55,18.20
2008,08,07,08,56,18.30
2008,08,07,08,57,18.30
2008,08,07,08,58,18.30
2008,08,07,08,59,18.40
2008,08,07,09,00,18.40
2008,08,07,09,01,18.40
2008,08,07,09,02,18.40
2008,08,07,09,03,18.40
2008,08,07,09,04,18.40
2008,08,07,09,05,18.30
2008,08,07,09,06,18.20
2008,08,07,09,07,18.20
2008,08,07,09,08,18.10
2008,08,07,09,09,18.10
2008,08,07,09,10,18.00
2008,08,07,09,11,18.00
2008,08,07,09,12,18.00
2008,08,07,09,13,18.10
2008,08,07,09,14,18.10
2008,08,07,09,15,18.10
2008,08,07,09,16,18.20
2008,08,07,09,17,18.20
2008,08,07,09,18,18.20
2008,08,07,09,19,18.30
2008,08,07,09,20,18.30
2008,08,07,09,21,18.30
2008,08,07,09,22,18.30
2008,08,07,09,23,18.30
2008,08,07,09,24,18.30
2008,08,07,09,25,18.40
2008,08,07,09,26,18.40
2008,08,07,09,27,18.40
2008,08,07,09,28,18.40
2008,08,07,09,29,18.40
2008,08,07,09,30,18.30
2008,08,07,09,31,18.30
2008,08,07,09,32,18.20
2008,08,07,09,33,18.20
2008,08,07,09,34,18.10
2008,08,07,09,35,18.10
2008,08,07,09,36,18.00
2008,08,07,09,37,18.10
2008,08,07,09,38,18.10
2008,08,07,09,39,18.20
2008,08,07,09,40,18.30
2008,08,07,09,41,18.30
2008,08,07,09,42,18.30
2008,08,07,09,43,18.30
2008,08,07,09,44,18.30
2008,08,07,09,45,18.30
2008,08,07,09,46,18.20
2008,08,07,09,47,18.20
2008,08,07,09,48,18.20
2008,08,07,09,49,18.20
2008,08,07,09,50,18.20
2008,08,07,09,51,18.20
2008,08,07,09,52,18.20
2008,08,07,09,53,18.30
2008,08,07,09,54,18.30
2008,08,07,09,55,18.20
2008,08,07,09,56,18.20
2008,08,07,09,57,18.20
2008,08,07,09,58,18.10
2008,08,07,09,59,18.10
2008,08,07,10,00,18.10
2008,08,07,10,01,18.10
2008,08,07,10,02,18.10
2008,08,07,10,03,18.20
2008,08,07,10,04,18.20
2008,08,07,10,05,18.10
2008,08,07,10,06,18.10
2008,08,07,10,07,18.10
2008,08,07,10,08,18.10
2008,08,07,10,09,18.00
2008,08,07,10,10,18.00
2008,08,07,10,11,17.90
2008,08,07,10,12,17.90
2008,08,07,10,13,17.90
2008,08,07,10,14,18.00
2008,08,07,10,15,18.00
2008,08,07,10,16,18.10
2008,08,07,10,17,18.10
2008,08,07,10,18,18.10
2008,08,07,10,19,18.10
2008,08,07,10,20,18.20
2008,08,07,10,21,18.20
2008,08,07,10,22,18.20
2008,08,07,10,23,18.20
2008,08,07,10,24,18.20
2008,08,07,10,25,18.20
2008,08,07,10,26,18.20
2008,08,07,10,27,18.20
2008,08,07,10,28,18.20
2008,08,07,10,29,18.30
2008,08,07,10,30,18.20
2008,08,07,10,31,18.20
2008,08,07,10,32,18.20
2008,08,07,10,33,18.10
2008,08,07,10,34,18.00
2008,08,07,10,35,18.00
2008,08,07,10,36,17.90
2008,08,07,10,37,17.90
2008,08,07,10,38,17.80
2008,08,07,10,39,17.80
2008,08,07,10,40,17.80
2008,08,07,10,41,17.90
2008,08,07,10,42,17.90
2008,08,07,10,43,17.90
2008,08,07,10,44,17.90
2008,08,07,10,45,18.00
2008,08,07,10,46,18.00
2008,08,07,10,47,18.10
2008,08,07,10,48,18.20
2008,08,07,10,49,18.20
2008,08,07,10,50,18.20
2008,08,07,10,51,18.20
2008,08,07,10,52,18.20
2008,08,07,10,53,18.20
2008,08,07,10,54,18.20
2008,08,07,10,55,18.20
2008,08,07,10,56,18.20
2008,08,07,10,57,18.20
2008,08,07,10,58,18.30
2008,08,07,10,59,18.30
2008,08,07,11,00,18.30
2008,08,07,11,01,18.30
2008,08,07,11,02,18.30
2008,08,07,11,03,18.30
2008,08,07,11,04,18.30
2008,08,07,11,05,18.40
2008,08,07,11,06,18.40
2008,08,07,11,07,18.40
2008,08,07,11,08,18.50
2008,08,07,11,09,18.60
2008,08,07,11,10,18.60
2008,08,07,11,11,18.50
2008,08,07,11,12,18.50
2008,08,07,11,13,18.50
2008,08,07,11,14,18.60
2008,08,07,11,15,18.60
2008,08,07,11,16,18.60
2008,08,07,11,17,18.70
2008,08,07,11,18,18.70
2008,08,07,11,19,18.70
2008,08,07,11,20,18.70
2008,08,07,11,21,18.70
2008,08,07,11,22,18.70
2008,08,07,11,23,18.70
2008,08,07,11,24,18.70
2008,08,07,11,25,18.70
2008,08,07,11,26,18.80
2008,08,07,11,27,18.80
2008,08,07,11,28,18.90
2008,08,07,11,29,18.90
2008,08,07,11,30,18.90
2008,08,07,11,31,18.90
2008,08,07,11,32,19.00
2008,08,07,11,33,19.00
2008,08,07,11,34,19.00
2008,08,07,11,35,18.90
2008,08,07,11,36,18.90
2008,08,07,11,37,18.90
2008,08,07,11,38,18.90
2008,08,07,11,39,18.90
2008,08,07,11,40,18.90
2008,08,07,11,41,19.00
2008,08,07,11,42,19.00
2008,08,07,11,43,19.00
2008,08,07,11,44,19.10
2008,08,07,11,45,19.10
2008,08,07,11,46,19.10
2008,08,07,11,47,19.20
2008,08,07,11,48,19.20
2008,08,07,11,49,19.30
2008,08,07,11,50,19.30
2008,08,07,11,51,19.30
2008,08,07,11,52,19.30
2008,08,07,11,53,19.20
2008,08,07,11,54,19.20
2008,08,07,11,55,19.20
2008,08,07,11,56,19.10
2008,08,07,11,57,19.10
2008,08,07,11,58,19.00
2008,08,07,11,59,19.00
2008,08,07,12,00,19.00
2008,08,07,12,01,19.10
2008,08,07,12,02,19.10
2008,08,07,12,03,19.20
2008,08,07,12,04,19.20
2008,08,07,12,05,19.30
2008,08,07,12,06,19.40
2008,08,07,12,07,19.40
2008,08,07,12,08,19.40
2008,08,07,12,09,19.40
2008,08,07,12,10,19.30
2008,08,07,12,11,19.20
2008,08,07,12,12,19.10
2008,08,07,12,13,19.10
2008,08,07,12,14,19.20
2008,08,07,12,15,19.30
2008,08,07,12,16,19.40
2008,08,07,12,17,19.50
2008,08,07,12,18,19.60
2008,08,07,12,19,19.70
2008,08,07,12,20,19.80
2008,08,07,12,21,19.90
2008,08,07,12,22,20.00
2008,08,07,12,23,20.00
2008,08,07,12,24,20.00
2008,08,07,12,25,20.00
2008,08,07,12,26,20.00
2008,08,07,12,27,20.00
2008,08,07,12,28,19.90
2008,08,07,12,29,19.80
2008,08,07,12,30,19.80
2008,08,07,12,31,19.70
2008,08,07,12,32,19.70
2008,08,07,12,33,19.70
2008,08,07,12,34,19.70
2008,08,07,12,35,19.70
2008,08,07,12,36,19.70
2008,08,07,12,37,19.70
2008,08,07,12,38,19.60
2008,08,07,12,39,19.60
2008,08,07,12,40,19.50
2008,08,07,12,41,19.50
2008,08,07,12,42,19.50
2008,08,07,12,43,19.50
2008,08,07,12,44,19.60
2008,08,07,12,45,19.70
2008,08,07,12,46,19.80
2008,08,07,12,47,20.00
2008,08,07,12,48,20.20
2008,08,07,12,49,20.20
2008,08,07,12,50,20.30
2008,08,07,12,51,20.30
2008,08,07,12,52,20.40
2008,08,07,12,53,20.40
2008,08,07,12,54,20.40
2008,08,07,12,55,20.40
2008,08,07,12,56,20.30
2008,08,07,12,57,20.20
2008,08,07,12,58,20.20
2008,08,07,12,59,20.20
2008,08,07,13,00,20.20
2008,08,07,13,01,20.30
2008,08,07,13,02,20.40
2008,08,07,13,03,20.40
2008,08,07,13,04,20.40
2008,08,07,13,05,20.40
2008,08,07,13,06,20.40
2008,08,07,13,07,20.30
2008,08,07,13,08,20.40
2008,08,07,13,09,20.40
2008,08,07,13,10,20.40
2008,08,07,13,11,20.50
2008,08,07,13,12,20.70
2008,08,07,13,13,20.70
2008,08,07,13,14,20.70
2008,08,07,13,15,20.70
2008,08,07,13,16,20.60
2008,08,07,13,17,20.60
2008,08,07,13,18,20.60
2008,08,07,13,19,20.70
2008,08,07,13,20,20.70
2008,08,07,13,21,20.70
2008,08,07,13,22,20.70
2008,08,07,13,23,20.70
2008,08,07,13,24,20.70
2008,08,07,13,25,20.70
2008,08,07,13,26,20.60
2008,08,07,13,27,20.50
2008,08,07,13,28,20.30
2008,08,07,13,29,20.10
2008,08,07,13,30,20.00
2008,08,07,13,31,19.90
2008,08,07,13,32,19.90
2008,08,07,13,33,19.90
2008,08,07,13,34,19.90
2008,08,07,13,35,20.10
2008,08,07,13,36,20.10
2008,08,07,13,37,20.10
2008,08,07,13,38,20.10
2008,08,07,13,39,20.10
2008,08,07,13,40,20.10
2008,08,07,13,41,20.10
2008,08,07,13,42,20.20
2008,08,07,13,43,20.30
2008,08,07,13,44,20.40
2008,08,07,13,45,20.50
2008,08,07,13,46,20.50
2008,08,07,13,47,20.60
2008,08,07,13,48,20.70
2008,08,07,13,49,20.70
2008,08,07,13,50,20.80
2008,08,07,13,51,20.80
2008,08,07,13,52,20.80
2008,08,07,13,53,20.80
2008,08,07,13,54,20.80
2008,08,07,13,55,20.80
2008,08,07,13,56,20.90
2008,08,07,13,57,20.90
2008,08,07,13,58,20.90
2008,08,07,13,59,20.90
2008,08,07,14,00,21.00
2008,08,07,14,01,21.10
2008,08,07,14,02,21.20
2008,08,07,14,03,21.20
2008,08,07,14,04,21.10
2008,08,07,14,05,20.90
2008,08,07,14,06,20.90
2008,08,07,14,07,20.90
2008,08,07,14,08,20.90
2008,08,07,14,09,20.80
2008,08,07,14,10,20.70
2008,08,07,14,11,20.70
2008,08,07,14,12,20.70
2008,08,07,14,13,20.80
2008,08,07,14,14,20.90
2008,08,07,14,15,20.90
2008,08,07,14,16,20.90
2008,08,07,14,17,20.90
2008,08,07,14,18,20.90
2008,08,07,14,19,20.80
2008,08,07,14,20,20.80
2008,08,07,14,21,20.70
2008,08,07,14,22,20.70
2008,08,07,14,23,20.60
2008,08,07,14,24,20.60
2008,08,07,14,25,20.60
2008,08,07,14,26,20.60
2008,08,07,14,27,20.70
2008,08,07,14,28,20.80
2008,08,07,14,29,20.80
2008,08,07,14,30,20.90
2008,08,07,14,31,20.90
2008,08,07,14,32,21.00
2008,08,07,14,33,21.00
2008,08,07,14,34,21.00
2008,08,07,14,35,21.10
2008,08,07,14,36,21.20
2008,08,07,14,37,21.20
2008,08,07,14,38,21.20
2008,08,07,14,39,21.30
2008,08,07,14,40,21.30
2008,08,07,14,41,21.20
2008,08,07,14,42,21.20
2008,08,07,14,43,21.20
2008,08,07,14,44,21.20
2008,08,07,14,45,21.30
2008,08,07,14,46,21.30
2008,08,07,14,47,21.30
2008,08,07,14,48,21.30
2008,08,07,14,49,21.20
2008,08,07,14,50,21.20
2008,08,07,14,51,21.20
2008,08,07,14,52,21.10
2008,08,07,14,53,21.10
2008,08,07,14,54,21.10
2008,08,07,14,55,21.20
2008,08,07,14,56,21.30
2008,08,07,14,57,21.40
2008,08,07,14,58,21.40
2008,08,07,14,59,21.30
2008,08,07,15,00,21.30
2008,08,07,15,01,21.20
2008,08,07,15,02,21.10
2008,08,07,15,03,21.10
2008,08,07,15,04,21.10
2008,08,07,15,05,21.20
2008,08,07,15,06,21.20
2008,08,07,15,07,21.30
2008,08,07,15,08,21.30
2008,08,07,15,09,21.40
2008,08,07,15,10,21.40
2008,08,07,15,11,21.50
2008,08,07,15,12,21.60
2008,08,07,15,13,21.60
2008,08,07,15,14,21.70
2008,08,07,15,15,21.80
2008,08,07,15,16,21.90
2008,08,07,15,17,21.90
2008,08,07,15,18,22.00
2008,08,07,15,19,22.10
2008,08,07,15,20,22.10
2008,08,07,15,21,22.20
2008,08,07,15,22,22.20
2008,08,07,15,23,22.20
2008,08,07,15,24,22.20
2008,08,07,15,25,22.30
2008,08,07,15,26,22.30
2008,08,07,15,27,22.30
2008,08,07,15,28,22.30
2008,08,07,15,29,22.30
2008,08,07,15,30,22.40
2008,08,07,15,31,22.50
2008,08,07,15,32,22.50
2008,08,07,15,33,22.60
2008,08,07,15,34,22.60
2008,08,07,15,35,22.60
2008,08,07,15,36,22.60
2008,08,07,15,37,22.70
2008,08,07,15,38,22.70
2008,08,07,15,39,22.40
2008,08,07,15,40,22.20
2008,08,07,15,41,22.00
2008,08,07,15,42,21.80
2008,08,07,15,43,21.60
2008,08,07,15,44,21.50
2008,08,07,15,45,21.40
2008,08,07,15,46,21.40
2008,08,07,15,47,21.40
2008,08,07,15,48,21.40
2008,08,07,15,49,21.40
2008,08,07,15,50,21.40
2008,08,07,15,51,21.40
2008,08,07,15,52,21.50
2008,08,07,15,53,21.60
2008,08,07,15,54,21.70
2008,08,07,15,55,21.80
2008,08,07,15,56,21.90
2008,08,07,15,57,22.00
2008,08,07,15,58,22.00
2008,08,07,15,59,21.90
2008,08,07,16,00,21.80
2008,08,07,16,01,21.80
2008,08,07,16,02,21.70
2008,08,07,16,03,21.60
2008,08,07,16,04,21.60
2008,08,07,16,05,21.50
2008,08,07,16,06,21.50
2008,08,07,16,07,21.40
2008,08,07,16,08,21.30
2008,08,07,16,09,21.20
2008,08,07,16,10,21.20
2008,08,07,16,11,21.30
2008,08,07,16,12,21.30
2008,08,07,16,13,21.30
2008,08,07,16,14,21.30
2008,08,07,16,15,21.30
2008,08,07,16,16,21.30
2008,08,07,16,17,21.30
2008,08,07,16,18,21.40
2008,08,07,16,19,21.40
2008,08,07,16,20,21.50
2008,08,07,16,21,21.50
2008,08,07,16,22,21.40
2008,08,07,16,23,21.30
2008,08,07,16,24,21.30
2008,08,07,16,25,21.20
2008,08,07,16,26,21.20
2008,08,07,16,27,21.20
2008,08,07,16,28,21.20
2008,08,07,16,29,21.20
2008,08,07,16,30,21.20
2008,08,07,16,31,21.20
2008,08,07,16,32,21.20
2008,08,07,16,33,21.20
2008,08,07,16,34,21.20
2008,08,07,16,35,21.20
2008,08,07,16,36,21.20
2008,08,07,16,37,21.30
2008,08,07,16,38,21.30
2008,08,07,16,39,21.30
2008,08,07,16,40,21.30
2008,08,07,16,41,21.30
2008,08,07,16,42,21.30
2008,08,07,16,43,21.30
2008,08,07,16,44,21.30
2008,08,07,16,45,21.30
2008,08,07,16,46,21.30
2008,08,07,16,47,21.30
2008,08,07,16,48,21.40
2008,08,07,16,49,21.40
2008,08,07,16,50,21.40
2008,08,07,16,51,21.40
2008,08,07,16,52,21.40
2008,08,07,16,53,21.50
2008,08,07,16,54,21.50
2008,08,07,16,55,21.50
2008,08,07,16,56,21.60
2008,08,07,16,57,21.60
2008,08,07,16,58,21.60
2008,08,07,16,59,21.80
2008,08,07,17,00,21.80
2008,08,07,17,01,21.80
2008,08,07,17,02,21.80
2008,08,07,17,03,21.80
2008,08,07,17,04,21.70
2008,08,07,17,05,21.70
2008,08,07,17,06,21.80
2008,08,07,17,07,21.80
2008,08,07,17,08,21.80
2008,08,07,17,09,21.80
2008,08,07,17,10,21.90
2008,08,07,17,11,21.90
2008,08,07,17,12,21.90
2008,08,07,17,13,21.80
2008,08,07,17,14,21.60
2008,08,07,17,15,21.50
2008,08,07,17,16,21.50
2008,08,07,17,17,21.40
2008,08,07,17,18,21.40
2008,08,07,17,19,21.40